Time,TemperatureF,DewpointF,PressureIn,WindDirection,WindDirectionDegrees,WindSpeedMPH,WindSpeedGustMPH,Humidity,HourlyPrecipIn,Conditions,Clouds,dailyrainin,SoftwareType,DateUTC
2013-06-04 00:13:00,55.1,51.0,29.87,SW,235,1.0,-999.0,85,-99.99,,,0.00,weatherlink.com 1.10,2013-06-04 07:13:00,
2013-06-04 00:28:00,55.0,51.0,29.88,SW,235,0.0,-999.0,85,-99.99,,,0.00,weatherlink.com 1.10,2013-06-04 07:28:00,
2013-06-04 00:43:00,55.0,51.0,29.87,SW,219,0.0,-999.0,85,-99.99,,,0.00,weatherlink.com 1.10,2013-06-04 07:43:00,
2013-06-04 00:58:00,55.0,51.0,29.87,SSW,193,0.0,-999.0,86,-99.99,,,0.00,weatherlink.com 1.10,2013-06-04 07:58:00,
2013-06-04 01:13:00,55.0,51.0,29.87,SE,141,0.0,-999.0,86,-99.99,,,0.00,weatherlink.com 1.10,2013-06-04 08:13:00,
2013-06-04 01:28:00,54.8,51.0,29.87,South,188,0.0,-999.0,86,-99.99,,,0.00,weatherlink.com 1.10,2013-06-04 08:28:00,
2013-06-04 01:43:00,54.8,51.0,29.87,South,187,0.0,-999.0,86,-99.99,,,0.00,weatherlink.com 1.10,2013-06-04 08:43:00,
2013-06-04 01:58:00,54.7,51.0,29.87,West,277,2.0,-999.0,86,-99.99,,,0.00,weatherlink.com 1.10,2013-06-04 08:58:00,
2013-06-04 02:13:00,54.7,51.0,29.87,SSW,196,0.0,-999.0,86,-99.99,,,0.00,weatherlink.com 1.10,2013-06-04 09:13:00,
2013-06-04 02:28:00,54.8,50.0,29.87,South,171,0.0,-999.0,85,-99.99,,,0.00,weatherlink.com 1.10,2013-06-04 09:28:00,
2013-06-04 02:43:00,54.8,50.0,29.87,South,188,0.0,-999.0,85,-99.99,,,0.00,weatherlink.com 1.10,2013-06-04 09:43:00,
2013-06-04 02:58:00,54.8,50.0,29.87,South,177,0.0,-999.0,85,-99.99,,,0.00,weatherlink.com 1.10,2013-06-04 09:58:00,
2013-06-04 03:13:00,54.8,50.0,29.87,South,190,0.0,-999.0,85,-99.99,,,0.00,weatherlink.com 1.10,2013-06-04 10:13:00,
2013-06-04 03:28:00,54.8,50.0,29.86,North,9,0.0,-999.0,85,-99.99,,,0.00,weatherlink.com 1.10,2013-06-04 10:28:00,
2013-06-04 03:43:00,54.7,50.0,29.86,ESE,121,0.0,-999.0,85,-99.99,,,0.00,weatherlink.com 1.10,2013-06-04 10:43:00,
2013-06-04 03:58:00,54.8,51.0,29.86,ESE,106,0.0,-999.0,86,-99.99,,,0.00,weatherlink.com 1.10,2013-06-04 10:58:00,
2013-06-04 04:13:00,54.8,51.0,29.86,West,267,0.0,-999.0,86,-99.99,,,0.00,weatherlink.com 1.10,2013-06-04 11:13:00,
2013-06-04 04:28:00,54.7,50.0,29.86,SSW,205,0.0,-999.0,85,-99.99,,,0.00,weatherlink.com 1.10,2013-06-04 11:28:00,
2013-06-04 04:43:00,54.7,50.0,29.86,SSW,194,0.0,-999.0,85,-99.99,,,0.00,weatherlink.com 1.10,2013-06-04 11:43:00,
2013-06-04 04:58:00,54.7,51.0,29.86,South,186,2.0,-999.0,86,-99.99,,,0.00,weatherlink.com 1.10,2013-06-04 11:58:00,
2013-06-04 05:13:00,54.7,51.0,29.86,SSE,157,0.0,-999.0,86,-99.99,,,0.00,weatherlink.com 1.10,2013-06-04 12:13:00,
2013-06-04 05:28:00,54.8,51.0,29.87,South,170,0.0,-999.0,86,-99.99,,,0.00,weatherlink.com 1.10,2013-06-04 12:28:00,
2013-06-04 05:43:00,54.8,51.0,29.87,SW,231,0.0,-999.0,86,-99.99,,,0.00,weatherlink.com 1.10,2013-06-04 12:43:00,
2013-06-04 05:58:00,54.8,51.0,29.88,SW,231,0.0,-999.0,86,-99.99,,,0.00,weatherlink.com 1.10,2013-06-04 12:58:00,
2013-06-04 06:13:00,55.0,51.0,29.88,SW,231,0.0,-999.0,86,-99.99,,,0.00,weatherlink.com 1.10,2013-06-04 13:13:00,
2013-06-04 06:28:00,55.0,51.0,29.89,West,263,0.0,-999.0,86,-99.99,,,0.00,weatherlink.com 1.10,2013-06-04 13:28:00,
2013-06-04 06:43:00,55.0,51.0,29.89,SSW,200,0.0,-999.0,86,-99.99,,,0.00,weatherlink.com 1.10,2013-06-04 13:43:00,
2013-06-04 06:58:00,55.0,51.0,29.89,NW,322,2.0,-999.0,86,-99.99,,,0.00,weatherlink.com 1.10,2013-06-04 13:58:00,
2013-06-04 07:13:00,55.1,51.0,29.90,WSW,256,0.0,-999.0,86,-99.99,,,0.00,weatherlink.com 1.10,2013-06-04 14:13:00,
2013-06-04 07:28:00,55.0,51.0,29.90,West,275,0.0,-999.0,86,-99.99,,,0.00,weatherlink.com 1.10,2013-06-04 14:28:00,
2013-06-04 07:43:00,55.0,51.0,29.91,SSW,200,0.0,-999.0,86,-99.99,,,0.00,weatherlink.com 1.10,2013-06-04 14:43:00,
2013-06-04 07:58:00,55.3,51.0,29.91,SSW,213,0.0,-999.0,85,-99.99,,,0.00,weatherlink.com 1.10,2013-06-04 14:58:00,
2013-06-04 08:13:00,55.6,52.0,29.92,SSE,164,0.0,-999.0,86,-99.99,,,0.00,weatherlink.com 1.10,2013-06-04 15:13:00,
2013-06-04 08:28:00,55.7,51.0,29.92,ENE,74,0.0,-999.0,85,-99.99,,,0.00,weatherlink.com 1.10,2013-06-04 15:28:00,
2013-06-04 08:43:00,55.7,51.0,29.93,South,188,0.0,-999.0,84,-99.99,,,0.00,weatherlink.com 1.10,2013-06-04 15:43:00,
2013-06-04 08:58:00,56.2,52.0,29.93,SSW,207,0.0,-999.0,85,-99.99,,,0.00,weatherlink.com 1.10,2013-06-04 15:58:00,
2013-06-04 09:13:00,56.2,52.0,29.93,West,263,0.0,-999.0,84,-99.99,,,0.00,weatherlink.com 1.10,2013-06-04 16:13:00,
2013-06-04 09:28:00,56.2,52.0,29.93,South,175,0.0,-999.0,85,-99.99,,,0.00,weatherlink.com 1.10,2013-06-04 16:28:00,
2013-06-04 09:43:00,56.3,52.0,29.93,SSW,192,0.0,-999.0,85,-99.99,,,0.00,weatherlink.com 1.10,2013-06-04 16:43:00,
2013-06-04 09:58:00,56.5,51.0,29.93,WSW,244,0.0,-999.0,83,-99.99,,,0.00,weatherlink.com 1.10,2013-06-04 16:58:00,
2013-06-04 10:13:00,57.0,52.0,29.94,SSW,196,0.0,-999.0,82,-99.99,,,0.00,weatherlink.com 1.10,2013-06-04 17:13:00,
2013-06-04 10:28:00,58.0,52.0,29.94,ESE,119,0.0,-999.0,79,-99.99,,,0.00,weatherlink.com 1.10,2013-06-04 17:28:00,
2013-06-04 10:43:00,58.4,52.0,29.95,WNW,296,0.0,-999.0,78,-99.99,,,0.00,weatherlink.com 1.10,2013-06-04 17:43:00,
2013-06-04 10:58:00,58.4,51.0,29.95,South,181,0.0,-999.0,76,-99.99,,,0.00,weatherlink.com 1.10,2013-06-04 17:58:00,
2013-06-04 11:13:00,59.2,51.0,29.96,ESE,105,0.0,-999.0,75,-99.99,,,0.00,weatherlink.com 1.10,2013-06-04 18:13:00,
2013-06-04 11:28:00,59.5,51.0,29.96,WSW,244,0.0,-999.0,74,-99.99,,,0.00,weatherlink.com 1.10,2013-06-04 18:28:00,
2013-06-04 11:43:00,59.8,52.0,29.96,NE,38,0.0,-999.0,74,-99.99,,,0.00,weatherlink.com 1.10,2013-06-04 18:43:00,
2013-06-04 11:58:00,60.9,52.0,29.96,WSW,257,0.0,-999.0,73,-99.99,,,0.00,weatherlink.com 1.10,2013-06-04 18:58:00,
2013-06-04 12:13:00,61.2,51.0,29.96,SW,214,3.0,-999.0,69,-99.99,,,0.00,weatherlink.com 1.10,2013-06-04 19:13:00,
2013-06-04 12:28:00,61.0,52.0,29.96,South,171,3.0,-999.0,71,-99.99,,,0.00,weatherlink.com 1.10,2013-06-04 19:28:00,
2013-06-04 12:43:00,61.6,51.0,29.96,South,186,1.0,-999.0,69,-99.99,,,0.00,weatherlink.com 1.10,2013-06-04 19:43:00,
2013-06-04 12:58:00,62.1,51.0,29.96,West,275,0.0,-999.0,68,-99.99,,,0.00,weatherlink.com 1.10,2013-06-04 19:58:00,
2013-06-04 13:14:00,63.4,53.0,29.96,NE,40,0.0,-999.0,69,-99.99,,,0.00,weatherlink.com 1.10,2013-06-04 20:14:00,
2013-06-04 13:29:00,63.9,52.0,29.96,WSW,237,2.0,-999.0,66,-99.99,,,0.00,weatherlink.com 1.10,2013-06-04 20:29:00,
2013-06-04 13:44:00,64.7,52.0,29.96,NNW,337,1.0,-999.0,64,-99.99,,,0.00,weatherlink.com 1.10,2013-06-04 20:44:00,
2013-06-04 13:59:00,65.2,52.0,29.96,SW,231,1.0,-999.0,62,-99.99,,,0.00,weatherlink.com 1.10,2013-06-04 20:59:00,
2013-06-04 14:14:00,65.5,52.0,29.96,SW,229,0.0,-999.0,63,-99.99,,,0.00,weatherlink.com 1.10,2013-06-04 21:14:00,
2013-06-04 14:29:00,65.2,52.0,29.96,NW,312,1.0,-999.0,63,-99.99,,,0.00,weatherlink.com 1.10,2013-06-04 21:29:00,
2013-06-04 14:43:00,65.6,52.0,29.96,SSW,209,2.0,-999.0,62,-99.99,,,0.00,weatherlink.com 1.10,2013-06-04 21:43:00,
2013-06-04 14:58:00,66.0,53.0,29.96,WNW,302,0.0,-999.0,64,-99.99,,,0.00,weatherlink.com 1.10,2013-06-04 21:58:00,
2013-06-04 15:14:00,66.4,52.0,29.96,SSW,203,0.0,-999.0,60,-99.99,,,0.00,weatherlink.com 1.10,2013-06-04 22:14:00,
2013-06-04 15:29:00,66.1,53.0,29.96,SSW,198,2.0,-999.0,62,-99.99,,,0.00,weatherlink.com 1.10,2013-06-04 22:29:00,
2013-06-04 15:44:00,65.0,52.0,29.96,SSE,161,4.0,-999.0,63,-99.99,,,0.00,weatherlink.com 1.10,2013-06-04 22:44:00,
2013-06-04 15:59:00,65.0,52.0,29.96,WSW,252,1.0,-999.0,64,-99.99,,,0.00,weatherlink.com 1.10,2013-06-04 22:59:00,
2013-06-04 16:14:00,65.0,52.0,29.96,ESE,110,1.0,-999.0,64,-99.99,,,0.00,weatherlink.com 1.10,2013-06-04 23:14:00,
2013-06-04 16:29:00,64.5,52.0,29.96,SW,222,1.0,-999.0,64,-99.99,,,0.00,weatherlink.com 1.10,2013-06-04 23:29:00,
2013-06-04 16:44:00,63.2,52.0,29.96,NW,313,1.0,-999.0,67,-99.99,,,0.00,weatherlink.com 1.10,2013-06-04 23:44:00,
2013-06-04 16:59:00,62.7,52.0,29.96,WSW,255,1.0,-999.0,68,-99.99,,,0.00,weatherlink.com 1.10,2013-06-04 23:59:00,
2013-06-04 17:14:00,62.6,51.0,29.95,East,97,1.0,-999.0,67,-99.99,,,0.00,weatherlink.com 1.10,2013-06-05 00:14:00,
2013-06-04 17:29:00,62.0,52.0,29.96,SSE,165,0.0,-999.0,69,-99.99,,,0.00,weatherlink.com 1.10,2013-06-05 00:29:00,
2013-06-04 17:44:00,62.3,52.0,29.95,North,351,0.0,-999.0,68,-99.99,,,0.00,weatherlink.com 1.10,2013-06-05 00:44:00,
2013-06-04 17:59:00,62.7,51.0,29.95,South,182,0.0,-999.0,65,-99.99,,,0.00,weatherlink.com 1.10,2013-06-05 00:59:00,
2013-06-04 18:14:00,62.4,51.0,29.95,WSW,257,0.0,-999.0,67,-99.99,,,0.00,weatherlink.com 1.10,2013-06-05 01:14:00,
2013-06-04 18:29:00,62.1,51.0,29.95,SW,215,0.0,-999.0,67,-99.99,,,0.00,weatherlink.com 1.10,2013-06-05 01:29:00,
2013-06-04 18:44:00,61.3,51.0,29.95,ENE,59,2.0,-999.0,69,-99.99,,,0.00,weatherlink.com 1.10,2013-06-05 01:44:00,
2013-06-04 18:59:00,60.9,51.0,29.94,West,259,1.0,-999.0,69,-99.99,,,0.00,weatherlink.com 1.10,2013-06-05 01:59:00,
2013-06-04 19:14:00,60.4,51.0,29.95,SE,143,2.0,-999.0,70,-99.99,,,0.00,weatherlink.com 1.10,2013-06-05 02:14:00,
2013-06-04 19:29:00,59.5,50.0,29.95,WSW,244,1.0,-999.0,72,-99.99,,,0.00,weatherlink.com 1.10,2013-06-05 02:29:00,
2013-06-04 19:44:00,58.3,50.0,29.95,SW,230,2.0,-999.0,74,-99.99,,,0.00,weatherlink.com 1.10,2013-06-05 02:44:00,
2013-06-04 19:59:00,57.6,50.0,29.95,WSW,257,3.0,-999.0,77,-99.99,,,0.00,weatherlink.com 1.10,2013-06-05 02:59:00,
2013-06-04 20:14:00,57.0,50.0,29.95,WSW,242,0.0,-999.0,78,-99.99,,,0.00,weatherlink.com 1.10,2013-06-05 03:14:00,
2013-06-04 20:29:00,56.7,50.0,29.95,WSW,244,3.0,-999.0,79,-99.99,,,0.00,weatherlink.com 1.10,2013-06-05 03:29:00,
2013-06-04 20:44:00,56.3,50.0,29.95,SSW,192,4.0,-999.0,80,-99.99,,,0.00,weatherlink.com 1.10,2013-06-05 03:44:00,
2013-06-04 20:59:00,56.0,50.0,29.95,SE,133,0.0,-999.0,81,-99.99,,,0.00,weatherlink.com 1.10,2013-06-05 03:59:00,
2013-06-04 21:14:00,55.9,50.0,29.95,SSE,163,0.0,-999.0,81,-99.99,,,0.00,weatherlink.com 1.10,2013-06-05 04:14:00,
2013-06-04 21:29:00,55.6,50.0,29.96,SW,236,0.0,-999.0,82,-99.99,,,0.00,weatherlink.com 1.10,2013-06-05 04:29:00,
2013-06-04 21:44:00,55.6,50.0,29.96,West,264,2.0,-999.0,82,-99.99,,,0.00,weatherlink.com 1.10,2013-06-05 04:44:00,
2013-06-04 21:59:00,55.4,50.0,29.96,West,278,0.0,-999.0,82,-99.99,,,0.00,weatherlink.com 1.10,2013-06-05 04:59:00,
2013-06-04 22:14:00,55.4,50.0,29.97,SE,132,0.0,-999.0,82,-99.99,,,0.00,weatherlink.com 1.10,2013-06-05 05:14:00,
2013-06-04 22:29:00,55.4,50.0,29.97,SSE,147,0.0,-999.0,82,-99.99,,,0.00,weatherlink.com 1.10,2013-06-05 05:29:00,
2013-06-04 22:44:00,55.3,50.0,29.96,South,189,0.0,-999.0,83,-99.99,,,0.00,weatherlink.com 1.10,2013-06-05 05:44:00,
2013-06-04 22:59:00,55.4,50.0,29.97,South,173,0.0,-999.0,83,-99.99,,,0.00,weatherlink.com 1.10,2013-06-05 05:59:00,
2013-06-04 23:14:00,55.6,50.0,29.98,South,188,0.0,-999.0,82,-99.99,,,0.00,weatherlink.com 1.10,2013-06-05 06:14:00,
2013-06-04 23:29:00,55.6,50.0,29.98,SSW,204,0.0,-999.0,82,-99.99,,,0.00,weatherlink.com 1.10,2013-06-05 06:29:00,
2013-06-04 23:44:00,55.6,50.0,29.98,West,279,1.0,-999.0,82,-99.99,,,0.00,weatherlink.com 1.10,2013-06-05 06:44:00,
2013-06-04 23:59:00,55.6,50.0,29.98,SSW,212,2.0,-999.0,82,-99.99,,,0.00,weatherlink.com 1.10,2013-06-05 06:59:00,